Tracking 19795 objects as of 20-Jul-2019
HD Live streaming from Space Station
objects crossing your sky now

BEIDOU 3 IGSO-2

Track BEIDOU 3 IGSO-2 now!


NORAD ID: 44337
Int'l Code: 2019-035A
Perigee: 35,738.0 km
Apogee: 35,839.3 km
Inclination: 55.0 °
Period: 1,435.8 minutes
Semi major axis: 42159 km
RCS: Unknown
Launch date: June 24, 2019
Source: People's Republic of China (PRC)
Launch site: Xichang Space Center, China (XSC)
aabbcc
Your satellite tracking list
Your tracking list is empty




NASA's NSSDC Master Catalog

Two Line Element Set (TLE):
1 44337U 19035A   19200.15165806 -.00000096 +00000-0 +00000-0 0  9999
2 44337 055.0494 181.3786 0012015 186.5660 089.7067 01.00290043000371
Source of the keplerian elements: AFSPC